Carolina, PR

3:17 PM AST on December 05, 2016 (GMT -0400)
Luis Munoz Marin International

Weather History for TJSJ - January, 2013

Change the Weather History Date:

Thursday, January 31, 2013

  Actual Average Record
Temperature  
Mean Temperature 79 °F 78 °F  
Max Temperature 84 °F 83 °F 89 °F (1995)
Min Temperature 73 °F 72 °F 61 °F (1962)
Degree Days  
Heating Degree Days 0 0  
Month to date heating degree days 0 0  
Since 1 July heating degree days 0 0  
Cooling Degree Days 14 13  
Month to date cooling degree days 421 391  
Year to date cooling degree days 421 391  
Growing Degree Days 28 (Base 50)    
Moisture  
Dew Point 71 °F    
Average Humidity 79    
Maximum Humidity 93    
Minimum Humidity 65    
Precipitation  
Precipitation 0.13 in 0.09 in 0.98 in (1982)
Month to date precipitation 1.78 3.76  
Year to date precipitation 1.78 3.76  
Sea Level Pressure  
Sea Level Pressure 30.05 in    
Wind  
Wind Speed 7 mph (East)    
Max Wind Speed 21 mph    
Max Gust Speed 26 mph    
Visibility 10 miles    
Events      
T = Trace of Precipitation, MM = Missing Value Source: NWS Daily Summary

Daily Weather History Graph

Daily Weather History Graph

Search for Another Location

Airport or City:

Trip Planner

Search our weather history database for the weather conditions in past years. The results will help you decide how hot, cold, wet, or windy it might be!

Date:

Astronomy

Jan. 31, 2013 Rise Set
Actual Time 6:57 AM AST 6:17 PM AST
Civil Twilight 6:34 AM AST 6:40 PM AST
Nautical Twilight 6:08 AM AST 7:06 PM AST
Astronomical Twilight 5:42 AM AST 7:32 PM AST
Moon 10:24 PM AST (1/31) 9:41 AM AST (1/31)
Length of Visible Light 12h 05m
Length of Day
11h 20m
Waning Gibbous, 80% of the Moon is Illuminated
Jan 31
Waning Gibbous
Feb 3
Last Quarter
Feb 10
New
Feb 17
First Quarter
Feb 25
Full

Hourly Weather History & Observations

Time (AST) Temp. Heat Index Dew Point Humidity Pressure Visibility Wind Dir Wind Speed Gust Speed Precip Events Conditions
12:56 AM 73.9 °F - 71.1 °F 91% 30.06 in 10.0 mi East 4.6 mph - 0.01 in   Scattered Clouds
1:56 AM 73.9 °F - 72.0 °F 93% 30.05 in 10.0 mi East 9.2 mph - 0.06 in   Scattered Clouds
2:56 AM 73.0 °F - 71.1 °F 93% 30.04 in 10.0 mi SE 3.5 mph - N/A   Scattered Clouds
3:56 AM 73.0 °F - 70.0 °F 90% 30.02 in 10.0 mi Calm Calm - N/A   Scattered Clouds
4:56 AM 73.0 °F - 70.0 °F 90% 30.03 in 10.0 mi Calm Calm - N/A   Scattered Clouds
5:56 AM 73.0 °F - 70.0 °F 90% 30.03 in 10.0 mi SE 3.5 mph - N/A   Scattered Clouds
6:56 AM 73.0 °F - 70.0 °F 90% 30.04 in 10.0 mi Calm Calm - N/A   Scattered Clouds
7:56 AM 73.9 °F - 70.0 °F 87% 30.06 in 10.0 mi Calm Calm - N/A   Scattered Clouds
8:56 AM 78.1 °F - 71.1 °F 79% 30.08 in 10.0 mi East 10.4 mph - N/A   Scattered Clouds
9:56 AM 79.0 °F - 72.0 °F 79% 30.10 in 10.0 mi East 10.4 mph - N/A   Mostly Cloudy
10:56 AM 82.0 °F 85.9 °F 70.0 °F 67% 30.10 in 10.0 mi East 13.8 mph - N/A   Mostly Cloudy
11:56 AM 82.0 °F 86.7 °F 72.0 °F 71% 30.09 in 10.0 mi East 16.1 mph 21.9 mph N/A   Scattered Clouds
12:56 PM 81.0 °F 84.9 °F 71.1 °F 72% 30.08 in 10.0 mi East 17.3 mph - 0.00 in   Scattered Clouds
1:56 PM 81.0 °F 84.9 °F 71.1 °F 72% 30.06 in 10.0 mi ENE 15.0 mph - 0.00 in   Scattered Clouds
2:56 PM 78.1 °F - 72.0 °F 81% 30.04 in 10.0 mi East 12.7 mph - 0.02 in   Scattered Clouds
3:56 PM 80.1 °F 83.6 °F 71.1 °F 74% 30.02 in 10.0 mi ENE 13.8 mph - 0.00 in   Scattered Clouds
4:56 PM 79.0 °F - 73.0 °F 82% 30.02 in 10.0 mi ENE 16.1 mph - 0.00 in   Scattered Clouds
5:56 PM 77.0 °F - 71.1 °F 82% 30.03 in 10.0 mi East 9.2 mph - N/A   Scattered Clouds
6:56 PM 75.9 °F - 72.0 °F 87% 30.04 in 10.0 mi East 8.1 mph - N/A   Scattered Clouds
7:56 PM 77.0 °F - 72.0 °F 84% 30.05 in 10.0 mi ESE 4.6 mph - 0.00 in   Scattered Clouds
8:56 PM 75.9 °F - 72.0 °F 87% 30.06 in 10.0 mi ESE 4.6 mph - 0.03 in   Scattered Clouds
9:56 PM 75.9 °F - 72.0 °F 87% 30.07 in 10.0 mi ESE 5.8 mph - 0.01 in   Scattered Clouds
10:56 PM 75.0 °F - 72.0 °F 90% 30.07 in 10.0 mi Calm Calm - N/A   Scattered Clouds
11:56 PM 75.0 °F - 72.0 °F 90% 30.06 in 10.0 mi Calm Calm - 0.00 in   Mostly Cloudy